Location: Peebles
(55.6412°N, 3.1714°W)
Time: 03:04:18
(UTC+01:00)

FENGYUN 1C DEB - Visible Passes

Search period start: 31 May 2023 00:00
Search period end: 10 June 2023 00:00
Orbit: 574 x 1110 km, 99.3° (Epoch: 30 May)

Date Brightness Start Highest point End Pass type
(mag) Time Alt. Az. Time Alt. Az. Time Alt. Az.
31 May ? 00:43:43 10° ESE 00:47:42 30° ENE 00:51:22 10° N visible
31 May ? 02:24:27 15° S 02:28:09 45° WSW 02:32:15 10° NNW visible
01 Jun ? 00:29:46 10° ESE 00:33:20 24° ENE 00:36:41 10° N visible
01 Jun ? 02:09:51 15° S 02:13:39 60° WSW 02:17:50 10° NNW visible
02 Jun ? 00:15:55 10° E 00:18:59 19° NE 00:21:54 10° N visible
02 Jun ? 01:55:12 14° SSE 01:59:09 79° WSW 02:03:20 10° NNW visible
02 Jun ? 03:38:30 10° WSW 03:40:20 12° W 03:42:05 10° WNW visible
03 Jun ? 00:02:11 10° E 00:04:37 15° NE 00:07:00 10° NNE visible
03 Jun ? 01:40:31 12° SSE 01:44:38 79° ENE 01:48:47 10° NNW visible
03 Jun ? 03:22:54 10° SW 03:25:39 16° W 03:28:17 10° NW visible
03 Jun ? 23:48:42 10° ENE 23:50:16 12° NE 23:51:49 10° NNE visible
04 Jun ? 01:25:49 11° SE 01:30:07 60° ENE 01:34:10 10° NNW visible
04 Jun ? 03:07:38 10° SW 03:10:58 21° W 03:14:08 10° NW visible
05 Jun ? 01:11:23 10° SE 01:15:34 45° ENE 01:19:29 10° N visible
05 Jun ? 02:52:53 12° SSW 02:56:17 26° W 02:59:50 10° NW visible
06 Jun ? 00:57:07 10° SE 01:01:02 34° ENE 01:04:44 10° N visible
06 Jun ? 02:38:07 13° SSW 02:41:36 34° W 02:45:23 10° NNW visible
07 Jun ? 00:42:55 10° ESE 00:46:29 27° ENE 00:49:55 10° N visible
07 Jun ? 02:23:19 13° S 02:26:54 46° WSW 02:30:50 10° NNW visible
08 Jun ? 00:28:47 10° ESE 00:31:57 21° NE 00:35:01 10° N visible
08 Jun ? 02:08:30 13° S 02:12:12 62° WSW 02:16:14 10° NNW visible
09 Jun ? 00:14:46 10° E 00:17:25 17° NE 00:20:00 10° NNE visible
09 Jun ? 01:53:39 13° SSE 01:57:29 83° WSW 02:01:33 10° NNW visible
